Weather History for KSJT - January, 2015

Change the Weather History Date:

Tuesday, January 6, 2015

  Actual Average Record
Temperature  
Mean Temperature 51 °F 46 °F  
Max Temperature 67 °F 59 °F 85 °F (1927)
Min Temperature 35 °F 33 °F 5 °F (1947)
Degree Days  
Heating Degree Days 14 19  
Month to date heating degree days 157 114  
Since 1 July heating degree days 918 1081  
Cooling Degree Days 0 0  
Month to date cooling degree days 0 0  
Year to date cooling degree days 0 0  
Moisture  
Dew Point 34 °F    
Average Humidity 58    
Maximum Humidity 82    
Minimum Humidity 34    
Precipitation  
Precipitation 0.00 in 0.03 in 0.54 in (1938)
Month to date precipitation 0.44 0.17  
Year to date precipitation 0.44 0.17  
Snow  
Snow 0.00 in 0.00 in 1.50 in (1997)
Month to date snowfall T 0.2  
Since 1 July snowfall T 0.8  
Snow Depth 0.00 in    
Sea Level Pressure  
Sea Level Pressure 30.35 in    
Wind  
Wind Speed 6 mph (West)    
Max Wind Speed 15 mph    
Max Gust Speed 18 mph    
Visibility 10 miles    
Events      
T = Trace of Precipitation, MM = Missing Value Source: NWS Daily Summary

Daily Weather History Graph

Daily Weather History Graph

Search for Another Location

Airport or City:

Trip Planner

Search our weather history database for the weather conditions in past years. The results will help you decide how hot, cold, wet, or windy it might be!

Date:

Astronomy

Jan. 06, 2015 Rise Set
Actual Time 7:41 AM CST 5:53 PM CST
Civil Twilight 7:15 AM CST 6:20 PM CST
Nautical Twilight 6:45 AM CST 6:50 PM CST
Astronomical Twilight 6:15 AM CST 7:20 PM CST
Moon 7:36 PM CST (1/6) 8:27 AM CST (1/6)
Length of Visible Light 11h 05m
Length of Day
10h 12m
Full, 98% of the Moon is Illuminated
Jan 6
Full
Jan 13
Last Quarter
Jan 20
New
Jan 26
First Quarter
Feb 3
Full

Hourly Weather History & Observations

Time (CST) Temp. Windchill Dew Point Humidity Pressure Visibility Wind Dir Wind Speed Gust Speed Precip Events Conditions
12:51 AM 39.0 °F 35.7 °F 30.9 °F 73% 30.35 in 10.0 mi West 4.6 mph - N/A   Clear
1:51 AM 36.0 °F 32.1 °F 30.0 °F 79% 30.35 in 10.0 mi West 4.6 mph - N/A   Clear
2:51 AM 37.9 °F 32.7 °F 32.0 °F 79% 30.35 in 10.0 mi West 6.9 mph - N/A   Clear
3:51 AM 37.0 °F 31.0 °F 30.9 °F 79% 30.35 in 10.0 mi SW 8.1 mph - N/A   Clear
4:51 AM 37.0 °F - 30.9 °F 79% 30.36 in 10.0 mi Calm Calm - N/A   Clear
5:51 AM 37.9 °F 31.5 °F 30.9 °F 76% 30.37 in 10.0 mi WSW 9.2 mph - N/A   Clear
6:51 AM 36.0 °F 31.1 °F 30.0 °F 79% 30.38 in 10.0 mi WSW 5.8 mph - N/A   Clear
7:51 AM 36.0 °F 29.0 °F 30.0 °F 79% 30.40 in 10.0 mi WSW 9.2 mph - N/A   Clear
8:51 AM 39.9 °F 33.4 °F 30.9 °F 70% 30.43 in 10.0 mi West 10.4 mph - N/A   Clear
9:51 AM 45.0 °F 39.3 °F 33.1 °F 63% 30.42 in 10.0 mi SW 11.5 mph - N/A   Clear
10:51 AM 52.0 °F - 36.0 °F 54% 30.40 in 10.0 mi SW 9.2 mph - N/A   Clear
11:51 AM 57.9 °F - 37.9 °F 47% 30.36 in 10.0 mi Variable 5.8 mph - N/A   Clear
12:51 PM 61.0 °F - 36.0 °F 39% 30.32 in 10.0 mi WNW 5.8 mph - N/A   Clear
1:51 PM 64.9 °F - 36.0 °F 34% 30.30 in 10.0 mi West 5.8 mph - N/A   Clear
2:51 PM 66.0 °F - 37.0 °F 34% 30.28 in 10.0 mi NNE 6.9 mph - N/A   Clear
3:51 PM 66.0 °F - 37.0 °F 34% 30.29 in 10.0 mi ENE 10.4 mph - N/A   Clear
4:51 PM 63.0 °F - 37.9 °F 40% 30.30 in 10.0 mi East 8.1 mph - N/A   Clear
5:51 PM 57.0 °F - 37.9 °F 49% 30.31 in 10.0 mi East 5.8 mph - N/A   Clear
6:51 PM 53.1 °F - 37.9 °F 57% 30.32 in 10.0 mi NE 3.5 mph - N/A   Clear
7:51 PM 46.9 °F - 37.0 °F 68% 30.35 in 10.0 mi ENE 4.6 mph - N/A   Clear
8:51 PM 46.0 °F 44.8 °F 37.0 °F 71% 30.36 in 10.0 mi East 3.5 mph - N/A   Clear
9:51 PM 43.0 °F - 36.0 °F 76% 30.37 in 10.0 mi Calm Calm - N/A   Clear
10:51 PM 39.0 °F - 34.0 °F 82% 30.37 in 10.0 mi Calm Calm - N/A   Clear
11:51 PM 36.0 °F - 33.1 °F 89% 30.38 in 10.0 mi Calm Calm - N/A   Clear